{"data":{"norad_id":43928,"intl_designator":"2019-002G","name":"IRIDIUM 175","alt_names":[],"object_type":"PAYLOAD","status":"ACTIVE","operator":null,"country":"US","launch_date":"2019-01-11","launch_site_code":"AFWTR","launch_vehicle":null,"mission":null,"orbit_class":"UNKNOWN","rcs_meters":null,"size_class":null,"mass_kg":null,"dimensions":null,"purposes":["comms"],"wikipedia_slug":null,"has_3d_model":false,"image_url":null,"decayed_at":null,"tle_current":{"epoch":"2026-05-24T21:59:55.860000Z","epoch_age_seconds":78292,"freshness":"FRESH","line1":"1 43928U 19002G   26144.91661875  .00000268  00000+0  73345-4 0  9999","line2":"2 43928  86.4492 300.2524 0001650 340.6846  19.4292 14.43597594395623","mean_motion":14.43597594,"eccentricity":0.000165,"inclination_deg":86.4492,"raan_deg":300.2524,"arg_perigee_deg":340.6846,"mean_anomaly_deg":19.4292,"bstar":7.3345e-5,"rev_number":39562,"period_min":99.750789692713,"perigee_km":745.46111707279,"apogee_km":747.81229239536,"semimajor_km":7124.7737047341,"source":"CELESTRAK","updated_at":"2026-05-25T13:38:14.815206Z"}}}